WetterOnline ( https://www.wetteronline.de )

Wetter aktuell Garmisch-Partenkirchen

Aktuelles Wetter: Garmisch-Partenkirchen (719m)

6-stündlich | Neueste Meldungen
Ortszeit Temperatur Wetter
Fr, 18.10. 2:00 5.8° C bewölkt
Do, 17.10. 20:00 9.5° C bedeckt
Do, 17.10. 14:00 18.7° C leicht bewölkt
Do, 17.10. 8:00 3.7° C fast wolkenlos
Do, 17.10. 2:00 3.8° C wolkig
Mi, 16.10. 20:00 7.2° C wolkenlos
Mi, 16.10. 14:00 15.0° C wolkenlos
Mi, 16.10. 8:00 6.8° C bedeckt
Ortszeit Temperatur Wetter
Fr, 18.10. 4:00 6.4° C bewölkt
Fr, 18.10. 3:50 6.4° C bewölkt
Fr, 18.10. 3:40 6.0° C bewölkt
Fr, 18.10. 3:30 5.6° C bedeckt
Fr, 18.10. 3:20 5.6° C bedeckt
Fr, 18.10. 3:10 5.6° C bedeckt
Fr, 18.10. 3:00 5.8° C bedeckt
Fr, 18.10. 2:30 5.7° C bedeckt
Fr, 18.10. 2:00 5.8° C bewölkt
Fr, 18.10. 1:30 6.0° C bedeckt
Fr, 18.10. 1:00 6.0° C bedeckt
Ortszeit Relative Feuchte Sichtweite
Fr, 18.10. 2:00 97% 40 km
Do, 17.10. 20:00 89% 65 km
Do, 17.10. 14:00 40% 65 km
Do, 17.10. 8:00 98% 35 km
Do, 17.10. 2:00 99% 50 km
Mi, 16.10. 20:00 95% 45 km
Mi, 16.10. 14:00 56% >70 km
Mi, 16.10. 8:00 98% 1.1 km
Ortszeit Relative Feuchte Sichtweite
Fr, 18.10. 4:00 97% 60 km
Fr, 18.10. 3:50 97% -
Fr, 18.10. 3:40 99% -
Fr, 18.10. 3:30 97% 40 km
Fr, 18.10. 3:20 97% -
Fr, 18.10. 3:10 98% -
Fr, 18.10. 3:00 97% 45 km
Fr, 18.10. 2:30 98% 45 km
Fr, 18.10. 2:00 97% 40 km
Fr, 18.10. 1:30 96% 55 km
Fr, 18.10. 1:00 97% 35 km
Ortszeit Niederschlagsmenge Niederschlagsart
Fr, 18.10. 2:00 0.0 l/m2 in 6 Std. -
Do, 17.10. 20:00 0.0 l/m2 in 12 Std. -
Do, 17.10. 14:00 0.0 l/m2 in 6 Std. -
Do, 17.10. 8:00 0.0 l/m2 in 12 Std. -
Do, 17.10. 2:00 0.0 l/m2 in 6 Std. -
Mi, 16.10. 20:00 0.0 l/m2 in 12 Std. -
Mi, 16.10. 14:00 0.0 l/m2 in 6 Std. -
Mi, 16.10. 8:00 16 l/m2 in 12 Std. Regen
Ortszeit Niederschlagsmenge Niederschlagsart
Fr, 18.10. 4:00 0.0 l/m2 in 1 Std. -
Fr, 18.10. 3:50 keine Meldung -
Fr, 18.10. 3:40 keine Meldung -
Fr, 18.10. 3:30 0.0 l/m2 in 1 Std. -
Fr, 18.10. 3:20 keine Meldung -
Fr, 18.10. 3:10 keine Meldung -
Fr, 18.10. 3:00 0.0 l/m2 in 1 Std. -
Fr, 18.10. 2:30 0.0 l/m2 in 1 Std. -
Fr, 18.10. 2:00 0.0 l/m2 in 1 Std. -
Fr, 18.10. 1:30 0.0 l/m2 in 1 Std. -
Fr, 18.10. 1:00 0.0 l/m2 in 1 Std. -
Ortszeit Stärke Spitze Richtung
km/h Bft. km/h Grad Sektor
Fr, 18.10. 2:00 4 1 11 240° SW
Do, 17.10. 20:00 4 1 18 240° SW
Do, 17.10. 14:00 4 1 11 200° S
Do, 17.10. 8:00 4 1 11 220° SW
Do, 17.10. 2:00 4 1 7 220° SW
Mi, 16.10. 20:00 6 1 17 220° SW
Mi, 16.10. 14:00 7 2 11 60° NO
Mi, 16.10. 8:00 4 1 7 170° S
Ortszeit Stärke Spitze Richtung
km/h Bft. km/h Grad Sektor
Fr, 18.10. 4:00 4 1 11 240° SW
Fr, 18.10. 3:50 4 1 - 240° SW
Fr, 18.10. 3:40 2 1 - 210° SW
Fr, 18.10. 3:30 4 1 11 220° SW
Fr, 18.10. 3:20 4 1 - 220° SW
Fr, 18.10. 3:10 4 1 - 200° S
Fr, 18.10. 3:00 4 1 11 250° W
Fr, 18.10. 2:30 4 1 11 200° S
Fr, 18.10. 2:00 4 1 7 240° SW
Fr, 18.10. 1:30 0 0 4 - -
Fr, 18.10. 1:00 4 1 7 220° SW
Ortszeit Untergrenze Bedeckung Gattung
total tief tief mittel hoch
Fr, 18.10. 2:00 4200 m 7/8 7/8 - - -
Do, 17.10. 20:00 5400 m 8/8 8/8 - - -
Do, 17.10. 14:00 9000 m 3/8 0/8 - - -
Do, 17.10. 8:00 5400 m 1/8 1/8 - - -
Do, 17.10. 2:00 9000 m 7/8 0/8 - - -
Mi, 16.10. 20:00 - 0/8 0/8 - - -
Mi, 16.10. 14:00 8700 m 0/8 0/8 - - -
Mi, 16.10. 8:00 60 m 8/8 8/8 - - -
Ortszeit Bedeckungsgrad in Achtel und Wolkenuntergrenze
Fr, 18.10. 4:00 7(2400m) 8(6600m)
Fr, 18.10. 3:50 7(2400m) 8(6600m)
Fr, 18.10. 3:40 6(2400m) 8(5700m) 8(6900m)
Fr, 18.10. 3:30 1(3300m) 8(6000m) 8(7200m)
Fr, 18.10. 3:20 1(3300m) 8(6000m) 8(7200m)
Fr, 18.10. 3:10 2(3300m) 8(5400m) 8(6000m)
Fr, 18.10. 3:00 3(3300m) 8(5400m) 8(9000m)
Fr, 18.10. 2:30 8(4200m) 8(5700m)
Fr, 18.10. 2:00 7(4200m)
Fr, 18.10. 1:30 8(3900m) 8(5100m)
Fr, 18.10. 1:00 8(4200m)
Ortszeit Luftdruck NN (hPa) Tendenz (hPa in 3 Std.)
Fr, 18.10. 2:00 1019 - 0,1
Do, 17.10. 20:00 1016 + 1,0
Do, 17.10. 14:00 1014 - 2,1
Do, 17.10. 8:00 1021 + 0,7
Do, 17.10. 2:00 1020 + 0,2
Mi, 16.10. 20:00 1018 + 0,8
Mi, 16.10. 14:00 1016 - 1,1
Mi, 16.10. 8:00 1019 + 1,2
Ortszeit Luftdruck NN (hPa) Tendenz (hPa in 3 Std.)
Fr, 18.10. 4:00 1018 - 0,6
Fr, 18.10. 3:50 1018 keine Meldung
Fr, 18.10. 3:40 1019 keine Meldung
Fr, 18.10. 3:30 1019 - 0,4
Fr, 18.10. 3:20 1019 keine Meldung
Fr, 18.10. 3:10 1019 keine Meldung
Fr, 18.10. 3:00 1019 - 0,2
Fr, 18.10. 2:30 1019 - 0,1
Fr, 18.10. 2:00 1019 - 0,1
Fr, 18.10. 1:30 1019 + 0,3
Fr, 18.10. 1:00 1019 + 0,7
Ortszeit Schneehöhe (cm)
Fr, 18.10. 2:00 0
Do, 17.10. 20:00 0
Do, 17.10. 14:00 0
Do, 17.10. 8:00 0
Do, 17.10. 2:00 0
Mi, 16.10. 20:00 0
Mi, 16.10. 14:00 0
Mi, 16.10. 8:00 0
Ortszeit Schneehöhe (cm)
Fr, 18.10. 4:00 0
Fr, 18.10. 3:50 0
Fr, 18.10. 3:40 0
Fr, 18.10. 3:30 0
Fr, 18.10. 3:20 0
Fr, 18.10. 3:10 0
Fr, 18.10. 3:00 0
Fr, 18.10. 2:30 0
Fr, 18.10. 2:00 0
Fr, 18.10. 1:30 0
Fr, 18.10. 1:00 0
Link zu dieser Seite / Seite empfehlen

Das Wetter in ...